Overview Statistics Trail Chart Weather Telemetry Raw packets
 

This is the latest recevied weather packets stored in our database for station/object EA7OC-10. If no packets are shown the sender has not sent any weather packets the latest 10 day(s).

<< 10 11 12 13 14 15 16 >>
Time Temp. Humidity Pressure Rain* Wind** Luminosity Snow
1788353577 45° C 24% 1018.6 hPa - - - -
1788352677 45° C 25% 1018.9 hPa - - - -
1788351788 44.44° C 25% 1019.1 hPa - - - -
1788350877 43.89° C 25% 1019.3 hPa - - - -
1788349977 43.33° C 25% 1019.3 hPa - - - -
1788349077 42.78° C 25% 1019.4 hPa - - - -
1788348177 42.22° C 26% 1019.5 hPa - - - -
1788347277 41.11° C 26% 1019.8 hPa - - - -
1788346377 40.56° C 26% 1019.9 hPa - - - -
1788345476 39.44° C 26% 1020 hPa - - - -
1788344576 38.89° C 26% 1020.1 hPa - - - -
1788343676 39.44° C 26% 1020.4 hPa - - - -
1788342776 39.44° C 26% 1020.5 hPa - - - -
1788341876 39.44° C 25% 1020.4 hPa - - - -
1788340976 39.44° C 25% 1020.5 hPa - - - -
1788340076 39.44° C 26% 1020.4 hPa - - - -
1788339176 38.33° C 25% 1020.2 hPa - - - -
1788338276 38.33° C 26% 1020.2 hPa - - - -
1788337375 38.33° C 25% 1020 hPa - - - -
1788336475 37.78° C 26% 1020.1 hPa - - - -
1788335575 37.22° C 25% 1020.1 hPa - - - -
1788334674 36.11° C 26% 1019.9 hPa - - - -
1788333776 33.89° C 26% 1019.9 hPa - - - -
1788332874 32.22° C 27% 1020 hPa - - - -
1788331974 29.44° C 27% 1019.9 hPa - - - -

* Rain since midnight (hover to see other rain measurements)
** Current wind speed in m/s (hover to see current wind gust speed)